• In Austria
  • List of Countries
  • For 7 days
  • Water Temperature
  • Satellite Maps
  • Weather Map
  • News
  • Weather Widgets
  • user-avatar
    Login

    Hourly Weather Kernave

    Today, 16 October, Tuesday

    Time Temperature Precipitation Wind Pressure Humidity
    00:00 +10°C° 0 mm 3 mps 760 mmHg 76%
    01:00 +10°C° 0 mm 3 mps 760 mmHg 77%
    02:00 +9°C° 0 mm 3 mps 760 mmHg 78%
    03:00 +9°C° 0 mm 3 mps 760 mmHg 80%
    04:00 +9°C° 0 mm 3 mps 760 mmHg 81%
    05:00 +9°C° 0 mm 3 mps 760 mmHg 82%
    06:00 +9°C° 0 mm 3 mps 760 mmHg 82%
    07:00 +9°C° 0 mm 3 mps 760 mmHg 81%
    08:00 +9°C° 0 mm 3 mps 760 mmHg 80%
    09:00 +11°C° 0 mm 3 mps 760 mmHg 74%
    10:00 +13°C° 0 mm 3 mps 760 mmHg 68%
    11:00 +14°C° 0 mm 3 mps 760 mmHg 61%
    12:00 +16°C° 0 mm 3 mps 759 mmHg 59%
    13:00 +17°C° 0 mm 3 mps 759 mmHg 57%
    14:00 +18°C° 0 mm 3 mps 759 mmHg 55%
    15:00 +17°C° 0 mm 2 mps 759 mmHg 60%
    16:00 +16°C° 0 mm 2 mps 759 mmHg 65%
    17:00 +15°C° 0 mm 2 mps 759 mmHg 71%
    18:00 +14°C° 0 mm 2 mps 759 mmHg 74%
    19:00 +13°C° 0 mm 2 mps 759 mmHg 77%
    20:00 +12°C° 0 mm 2 mps 759 mmHg 80%
    21:00 +12°C° 0 mm 2 mps 759 mmHg 81%
    22:00 +10°C° 0 mm 2 mps 759 mmHg 82%
    23:00 +10°C° 0 mm 2 mps 760 mmHg 83%

    Tomorrow, 17 October, Wednesday

    Time Temperature Precipitation Wind Pressure Humidity
    00:00 +10°C° 0 mm 2 mps 760 mmHg 84%
    01:00 +10°C° 0 mm 1 mps 760 mmHg 84%
    02:00 +10°C° 0 mm 1 mps 760 mmHg 85%
    03:00 +10°C° 0 mm 1 mps 760 mmHg 85%
    04:00 +10°C° 0 mm 1 mps 760 mmHg 86%
    05:00 +9°C° 0 mm 1 mps 759 mmHg 86%
    06:00 +8°C° 0 mm 2 mps 760 mmHg 85%
    07:00 +9°C° 0 mm 2 mps 760 mmHg 85%
    08:00 +9°C° 0 mm 2 mps 760 mmHg 84%
    09:00 +12°C° 0 mm 2 mps 760 mmHg 76%
    10:00 +14°C° 0 mm 2 mps 760 mmHg 69%
    11:00 +16°C° 0 mm 2 mps 760 mmHg 62%
    12:00 +16°C° 0 mm 2 mps 760 mmHg 59%
    13:00 +17°C° 0 mm 2 mps 760 mmHg 56%
    14:00 +18°C° 0 mm 2 mps 759 mmHg 53%
    15:00 +17°C° 0 mm 2 mps 759 mmHg 59%
    16:00 +16°C° 0 mm 1 mps 759 mmHg 65%
    17:00 +15°C° 0 mm 1 mps 759 mmHg 70%
    18:00 +14°C° 0 mm 2 mps 759 mmHg 74%
    19:00 +13°C° 0 mm 2 mps 759 mmHg 78%
    20:00 +12°C° 0 mm 2 mps 759 mmHg 81%
    21:00 +12°C° 0 mm 2 mps 759 mmHg 83%
    22:00 +10°C° 0 mm 2 mps 759 mmHg 84%
    23:00 +10°C° 0 mm 2 mps 759 mmHg 86%

    Day after tomorrow, 18 October, Thursday

    Time Temperature Precipitation Wind Pressure Humidity
    00:00 +10°C° 0 mm 2 mps 759 mmHg 87%
    01:00 +9°C° 0 mm 2 mps 759 mmHg 87%
    02:00 +10°C° 0 mm 1 mps 759 mmHg 88%
    03:00 +10°C° 0 mm 1 mps 759 mmHg 88%
    04:00 +10°C° 0 mm 1 mps 759 mmHg 89%
    05:00 +10°C° 0 mm 1 mps 758 mmHg 89%
    06:00 +10°C° 0 mm 1 mps 758 mmHg 89%
    07:00 +9°C° 0 mm 2 mps 758 mmHg 89%
    08:00 +9°C° 0 mm 2 mps 758 mmHg 88%
    09:00 +12°C° 0 mm 2 mps 758 mmHg 82%
    10:00 +14°C° 0 mm 2 mps 758 mmHg 76%
    11:00 +16°C° 0 mm 2 mps 757 mmHg 70%
    12:00 +17°C° 0 mm 2 mps 757 mmHg 68%
    13:00 +18°C° 0 mm 2 mps 757 mmHg 66%
    14:00 +19°C° 0 mm 2 mps 757 mmHg 63%
    15:00 +18°C° 0 mm 2 mps 756 mmHg 69%
    16:00 +18°C° 0 mm 1 mps 756 mmHg 75%
    17:00 +15°C° 0 mm 1 mps 756 mmHg 80%
    18:00 +15°C° 0 mm 1 mps 756 mmHg 83%
    19:00 +14°C° 0 mm 1 mps 756 mmHg 85%
    20:00 +13°C° 0 mm 1 mps 756 mmHg 88%
    21:00 +13°C° 0 mm 1 mps 756 mmHg 88%
    22:00 +12°C° 0 mm 1 mps 756 mmHg 88%
    23:00 +12°C° 0 mm 1 mps 756 mmHg 89%

    19 October, Friday

    Time Temperature Precipitation Wind Pressure Humidity
    00:00 +12°C° 0 mm 1 mps 756 mmHg 88%
    01:00 +11°C° 0 mm 1 mps 756 mmHg 88%
    02:00 +11°C° 0 mm 1 mps 756 mmHg 88%
    03:00 +11°C° 0 mm 1 mps 756 mmHg 87%
    04:00 +11°C° 0 mm 1 mps 756 mmHg 87%
    05:00 +11°C° 0 mm 1 mps 755 mmHg 87%
    06:00 +11°C° 0 mm 1 mps 756 mmHg 85%
    07:00 +11°C° 0 mm 1 mps 756 mmHg 84%
    08:00 +11°C° 0 mm 1 mps 756 mmHg 83%
    09:00 +12°C° 0 mm 1 mps 756 mmHg 80%
    10:00 +13°C° 0 mm 1 mps 756 mmHg 77%
    11:00 +14°C° 0 mm 2 mps 756 mmHg 73%
    12:00 +14°C° 0 mm 2 mps 756 mmHg 73%
    13:00 +15°C° 0 mm 2 mps 756 mmHg 73%
    14:00 +15°C° 0 mm 2 mps 756 mmHg 73%
    15:00 +14°C° 0 mm 2 mps 756 mmHg 77%
    16:00 +14°C° 0 mm 2 mps 757 mmHg 81%
    17:00 +13°C° 0 mm 2 mps 757 mmHg 86%
    18:00 +13°C° 0 mm 2 mps 757 mmHg 87%
    19:00 +12°C° 0 mm 2 mps 757 mmHg 88%
    20:00 +12°C° 0 mm 2 mps 757 mmHg 90%
    21:00 +10°C° 0 mm 2 mps 757 mmHg 90%
    22:00 +10°C° 0 mm 2 mps 758 mmHg 90%
    23:00 +10°C° 0 mm 2 mps 758 mmHg 89%

    20 October, Saturday

    Time Temperature Precipitation Wind Pressure Humidity
    00:00 +9°C° 0 mm 2 mps 758 mmHg 89%
    01:00 +9°C° 0 mm 2 mps 758 mmHg 89%
    02:00 +8°C° 0 mm 2 mps 758 mmHg 89%
    03:00 +8°C° 0 mm 2 mps 758 mmHg 90%
    04:00 +9°C° 0 mm 1 mps 758 mmHg 90%
    05:00 +8°C° 0 mm 1 mps 758 mmHg 90%
    06:00 +8°C° 0 mm 1 mps 758 mmHg 89%
    07:00 +8°C° 0 mm 1 mps 758 mmHg 89%
    08:00 +8°C° 0 mm 1 mps 758 mmHg 88%
    09:00 +9°C° 0 mm 1 mps 758 mmHg 82%
    10:00 +10°C° 0 mm 1 mps 758 mmHg 77%
    11:00 +11°C° 0 mm 1 mps 758 mmHg 71%
    12:00 +11°C° 0 mm 1 mps 758 mmHg 68%
    13:00 +12°C° 0 mm 1 mps 757 mmHg 64%
    14:00 +12°C° 0 mm 1 mps 757 mmHg 61%
    15:00 +12°C° 0 mm 1 mps 757 mmHg 64%
    16:00 +11°C° 0 mm 1 mps 757 mmHg 66%
    17:00 +9°C° 0 mm 2 mps 757 mmHg 69%
    18:00 +10°C° 0 mm 1 mps 757 mmHg 71%
    19:00 +9°C° 0 mm 1 mps 757 mmHg 72%
    20:00 +9°C° 0 mm 1 mps 757 mmHg 73%
    21:00 +9°C° 0 mm 1 mps 757 mmHg 74%
    22:00 +8°C° 0 mm 1 mps 757 mmHg 74%
    23:00 +8°C° 0 mm 1 mps 757 mmHg 75%

    21 October, Sunday

    Time Temperature Precipitation Wind Pressure Humidity
    00:00 +8°C° 0 mm 1 mps 757 mmHg 76%
    01:00 +8°C° 0 mm 1 mps 757 mmHg 78%
    02:00 +7°C° 0 mm 1 mps 757 mmHg 79%
    03:00 +7°C° 0 mm 1 mps 757 mmHg 80%
    04:00 +7°C° 0 mm 1 mps 757 mmHg 81%
    05:00 +6°C° 0 mm 1 mps 757 mmHg 82%
    06:00 +6°C° 0 mm 1 mps 757 mmHg 83%
    07:00 +6°C° 0 mm 1 mps 757 mmHg 84%
    08:00 +6°C° 0 mm 1 mps 757 mmHg 85%
    09:00 +8°C° 0 mm 1 mps 758 mmHg 81%
    10:00 +8°C° 0 mm 2 mps 758 mmHg 76%
    11:00 +9°C° 0 mm 2 mps 758 mmHg 72%
    12:00 +10°C° 0 mm 2 mps 758 mmHg 71%
    13:00 +10°C° 0 mm 2 mps 757 mmHg 70%
    14:00 +10°C° 0 mm 2 mps 757 mmHg 70%
    15:00 +10°C° 0 mm 2 mps 757 mmHg 73%
    16:00 +9°C° 0 mm 2 mps 757 mmHg 77%
    17:00 +8°C° 0 mm 2 mps 758 mmHg 80%
    18:00 +8°C° 0 mm 2 mps 758 mmHg 81%
    19:00 +8°C° 0 mm 1 mps 758 mmHg 82%
    20:00 +8°C° 0 mm 1 mps 758 mmHg 82%
    21:00 +8°C° 0 mm 1 mps 758 mmHg 83%
    22:00 +7°C° 0 mm 1 mps 758 mmHg 84%
    23:00 +5°C° 0 mm 0 mps 758 mmHg 85%
    Show more